Location: Ambrose Reserve
(33.0207°S, 151.6068°E)
Time: 09:40:05
(UTC+00:00)

Daily predictions for brighter satellites

Satellite Brightness Start Highest point End
(mag) Time Altitude Azimuth Time Altitude Azimuth Time Altitude Azimuth
Timation 1 Rocket 4.4 18:25:22 43° N 18:27:23 77° ENE 18:33:25 10° SSE
Cosmos 2263 Rocket 2.7 18:24:09 10° N 18:29:34 56° ENE 18:35:04 10° SSE
Cosmos 1633 Rocket 3.8 18:36:01 41° SE 18:37:03 51° E 18:41:19 10° NNE
Cosmos 1666 Rocket 3.9 18:38:19 65° ENE 18:38:19 65° ENE 18:42:27 10° NNE
CZ-4B DEB 4.2 18:36:03 10° NNE 18:41:32 83° ESE 18:43:49 37° S
OAO 3 Copernicus 4.2 18:43:51 83° S 18:43:53 83° SSE 18:48:58 10° E
Cosmos 1048 Rocket 4.4 18:42:06 33° S 18:44:25 63° ESE 18:49:40 10° NNE
SL-16 R/B 2.1 18:44:45 64° WNW 18:44:45 64° WNW 18:50:12 10° N
NOAA 6 4.2 18:44:50 10° NNE 18:49:59 74° ESE 18:53:33 21° S
USA 215 3.4 18:44:54 10° SSE 18:51:14 50° SW 18:52:19 45° WSW
Chandra Rocket (1) 4.4 18:44:18 10° NW 18:52:40 27° N 18:56:15 10° ENE
Cosmos 1238 Rocket 2.9 18:53:47 61° E 18:53:47 61° E 18:57:34 10° NNE
Hubble Space Telescope 1.5 18:54:16 43° N 18:54:27 43° N 18:58:25 10° ENE
PAYLOAD B 4.1 18:52:48 10° NNE 18:58:23 82° WNW 19:02:24 20° SSW
Cosmos 2227 4.1 18:52:52 10° NNW 18:58:35 66° WSW 19:04:19 10° SSE
Cosmos 468 4.4 18:59:46 34° SSW 19:02:08 79° WNW 19:07:27 10° N
STARLINK-1232 4.4 18:59:43 20° NNW 19:02:22 51° NE 19:06:27 10° SE
DELTA 2 R/B (1) 3.8 19:02:09 44° WNW 19:03:27 54° NNW 19:08:55 10° NE
STARLINK-1149 4.4 19:03:31 37° S 19:04:40 48° SE 19:08:42 10° ENE
Cosmos 1689 Rocket 2.9 19:05:47 46° NNE 19:05:47 46° NNE 19:08:03 10° N
Okean O Rocket 1.7 19:01:53 10° NNE 19:06:14 77° ESE 19:09:34 17° S
STARLINK-1208 4.2 19:04:29 19° NNW 19:07:18 58° NE 19:11:26 10° SE
Envisat 4.0 19:03:23 10° NE 19:08:14 46° ESE 19:13:09 10° S
Cosmos 1125 Rocket 4.3 19:10:23 31° SW 19:10:23 31° SW 19:13:53 10° S
GEOS 3 Rocket 3.8 19:04:34 10° SSE 19:09:20 42° SW 19:09:51 41° WSW
STARLINK-1180 4.2 19:08:18 36° SSW 19:09:40 53° SE 19:13:45 10° ENE
Cosmos 1943 4.4 19:05:33 10° S 19:10:57 42° ESE 19:16:19 10° NE
STARLINK-1271 4.0 19:09:18 18° NNW 19:12:18 65° NE 19:16:28 10° SE
CZ-4B R/B 3.0 19:09:21 10° N 19:14:39 81° WNW 19:20:02 10° SSW
STARLINK-1153 4.0 19:13:06 35° SSW 19:14:40 60° SE 19:18:47 10° NE
Cosmos 1603 4.3 19:09:31 10° SSW 19:15:08 57° ESE 19:20:38 10° NE
STARLINK-1154 3.8 19:14:05 17° NW 19:17:15 74° NE 19:21:28 10° SE
Meteor 1-26 Rocket 4.3 19:13:21 10° N 19:19:22 87° W 19:25:26 10° S
STARLINK-1132 3.8 19:17:53 33° SSW 19:19:39 67° SE 19:23:47 10° NE
STARLINK-1197 3.6 19:18:51 15° NW 19:22:12 83° NE 19:26:25 10° SE
STARLINK-1177 3.7 19:22:41 31° SW 19:24:38 75° SE 19:28:48 10° NE
COSMO-SKYMED 1 4.4 19:21:36 10° SSE 19:25:37 34° E 19:29:33 10° NNE
GOES 2 Rocket 3.9 19:24:05 24° WNW 19:26:37 50° N 19:32:04 10° ENE
STARLINK-1198 3.5 19:23:38 14° NW 19:27:11 88° SW 19:31:24 10° SE
Cosmos 1441 Rocket 3.1 19:25:27 23° SSW 19:27:38 62° W 19:31:19 10° N
Cosmos 1470 Rocket 3.4 19:23:19 10° S 19:27:44 74° W 19:32:03 10° N
Cosmos 44 3.2 19:25:09 19° SSW 19:28:41 90° WSW 19:33:18 10° NNE
BREEZE-M DEB (TANK) 3.5 19:29:57 17° S 19:29:57 17° S 19:31:17 10° SSE
STARLINK-1167 3.6 19:27:29 28° SW 19:29:38 84° SE 19:33:48 10° NE
Cosmos 1802 Rocket 4.2 19:25:10 10° S 19:31:28 73° E 19:37:37 10° NNE
STARLINK-1199 3.5 19:28:26 13° NW 19:32:10 79° SW 19:36:24 10° SE
STARLINK-1168 3.6 19:32:14 26° SW 19:34:34 87° NW 19:38:44 10° NE
Cosmos 2123 Rocket 4.2 19:29:16 10° N 19:35:28 76° E 19:41:43 10° S
STARLINK-1210 3.5 19:33:13 11° NW 19:37:08 71° SW 19:41:21 10° SE
GPS 2-04 Rocket1 3.8 19:33:55 10° NW 19:37:57 45° NNE 19:41:58 10° E
STARLINK-1164 3.6 19:37:00 23° SW 19:39:32 78° NW 19:43:41 10° NE
PSLV R/B 3.8 19:37:24 10° S 19:41:33 74° WSW 19:45:36 10° NNW
STARLINK-1219 3.6 19:38:00 10° NW 19:42:07 63° SW 19:46:18 10° SE
STARLINK-1182 3.6 19:41:48 21° SW 19:44:30 69° NW 19:48:39 10° NE
STARLINK-1211 3.7 19:43:00 10° WNW 19:47:07 57° SW 19:51:16 10° SE
Cosmos 1782 3.0 19:43:51 10° NNW 19:47:41 47° W 19:51:35 10° S
SEDSat Delta rocket 3.0 19:45:38 18° W 19:48:51 70° N 19:52:57 10° ENE
Meteor 1-25 Rocket 4.3 19:43:34 10° SSW 19:49:15 58° W 19:54:56 10° N
STARLINK-1163 3.7 19:46:35 19° SW 19:49:29 61° NW 19:53:35 10° NNE
STARLINK-1245 3.8 19:48:01 10° WNW 19:52:05 51° SW 19:56:12 10° SE
Cosmos 1602 3.7 19:49:32 10° S 19:53:33 80° W 19:57:29 10° N
BREEZE-M DEB (TANK) 2.6 19:49:41 13° SW 19:53:46 66° SE 19:56:01 10° ENE
STARLINK-1172 3.9 19:51:22 17° WSW 19:54:27 54° NW 19:58:30 10° NNE
ERBS 4.1 19:52:31 10° NNW 19:55:41 36° NE 19:58:53 10° SE
Okean-O 3.7 19:52:13 10° NNE 19:56:29 47° ESE 20:00:49 10° S
STARLINK-1233 3.9 19:53:02 10° WNW 19:57:03 46° SW 20:01:07 10° SSE
STARLINK-1145 4.0 19:56:10 15° WSW 19:59:25 48° NW 20:03:26 10° NNE
STARLINK-1204 4.1 19:58:05 10° WNW 20:02:04 41° SW 20:06:04 10° SSE
STARLINK-1161 4.2 20:00:57 13° WSW 20:04:22 42° NW 20:08:19 10° NNE
YAOGAN 6 3.1 20:02:48 10° N 20:06:18 42° W 20:09:53 10° SSW
SMAP 3.7 20:02:21 10° NNW 20:06:38 35° W 20:10:58 10° SSW
Cosmos 1707 Rocket 4.1 20:02:34 10° N 20:07:00 66° E 20:11:31 10° SSE
STARLINK-1238 4.2 20:03:10 10° WNW 20:07:04 37° SW 20:11:01 10° SSE
Meteor 1-10 Rocket 4.3 20:02:18 10° N 20:07:55 86° E 20:13:34 10° S
YAOGAN 1 4.3 20:04:38 10° NE 20:08:33 34° ESE 20:12:32 10° S
Cosmos 2100 Rocket 4.5 20:02:59 10° SSW 20:08:42 38° W 20:14:24 10° NNW
STARLINK-1160 4.4 20:05:42 12° WSW 20:09:18 38° NW 20:13:09 10° NNE
Cosmos 1869 Rocket 3.7 20:06:46 10° S 20:11:19 84° E 20:15:49 10° N
FengYun 1-2 T 4.2 20:05:50 10° N 20:11:22 82° WNW 20:16:56 10° SSW
STARLINK-1201 4.3 20:08:15 10° WNW 20:12:04 34° SW 20:15:56 10° SSE
Cosmos 1844 4.2 20:07:24 10° N 20:13:05 69° ENE 20:18:44 10° SSE
SKYMED 2 3.6 20:09:21 10° S 20:13:42 61° WSW 20:18:00 10° NNW
Cosmos 2263 Rocket 3.5 20:10:16 10° W 20:13:50 17° WSW 20:17:28 10° SSW
Meteor 1-14 Rocket 4.5 20:08:54 10° SSW 20:14:50 59° W 20:20:39 10° N
Gbstr 26 Del rocket 2.9 20:11:13 10° SW 20:14:57 57° NW 20:18:58 10° NNE
STARLINK-1206 4.5 20:13:21 10° WNW 20:17:05 31° SW 20:20:52 10° SSE
STARLINK-1159 4.5 20:17:35 10° SSW 20:21:39 46° SE 20:25:41 10° ENE
BREEZE-M DEB (TANK) 3.9 20:18:59 10° WSW 20:21:44 17° SSW 20:23:49 10° SSE
USA 229 DEB 4.0 20:19:26 10° NW 20:27:07 71° WSW 20:34:34 10° SSE
USA 229 4.0 20:19:31 10° NW 20:27:12 72° WSW 20:34:40 10° SSE
